Location: Unspecified
(0.0000°N, 0.0000°E)
Time: 18:42:47
(UTC+00:00)

Hubble Space Telescope - Pass Details

Date: 18 January 2026
Orbit: 479 x 481 km, 28.5° (Epoch: 19 January)

Event Time Altitude Azimuth Distance (km) Brightness Sun altitude
Exits shadow 04:39:15 23° 19° (NNE) 1,041 2.2 -21.2°
Maximum altitude 04:39:40 24° 29° (NNE) 1,027 2.2 -21.2°
Drops below altitude 10° 04:42:45 10° 84° (E) 1,638 4.1 -20.4°
Sets 04:45:14 0° 99° (E) 2,517 5.7 -19.9°
